KG4IFE-13 Weather Reports


Display with metric or nautical units.
time (UTC)temp
F
wind
direction
speed
MPH
gust
MPH
rain 1hr
in
rain 24hr
in
rain mn
in
humidity
%
barometer
mb
20260906115144 70 270 1.0 2.0 0.00 0.00 0.00 88 1014.9
20260906114643 70 270 1.0 2.0 0.00 0.00 0.00 88 1014.9
20260906114142 70 270 1.0 2.0 0.00 0.00 0.00 88 1014.9
20260906113641 70 255 1.0 3.0 0.00 0.00 0.00 88 1014.8
20260906113141 70 255 1.0 3.0 0.00 0.00 0.00 88 1014.8
20260906112639 70 270 1.0 2.0 0.00 0.00 0.00 88 1014.8
20260906112140 70 270 1.0 2.0 0.00 0.00 0.00 88 1014.8
20260906111637 70 270 1.0 2.0 0.00 0.00 0.00 89 1014.6
20260906111136 70 270 1.0 2.0 0.00 0.00 0.00 89 1014.6
20260906110634 70 270 1.0 2.0 0.00 0.00 0.00 89 1014.6
20260906110136 70 270 1.0 2.0 0.00 0.00 0.00 89 1014.6
20260906105633 70 270 1.0 2.0 0.00 0.00 0.00 89 1014.6
20260906105144 70 270 1.0 2.0 0.00 0.00 0.00 89 1014.6
20260906104633 70 255 1.0 2.0 0.00 0.00 0.00 89 1014.6
20260906104149 70 255 1.0 2.0 0.00 0.00 0.00 89 1014.6
20260906103631 70 251 1.0 3.0 0.00 0.00 0.00 89 1014.6
20260906103129 70 251 1.0 3.0 0.00 0.00 0.00 89 1014.6
20260906102626 69 270 1.0 2.0 0.00 0.00 0.00 89 1014.4
20260906102139 69 270 1.0 2.0 0.00 0.00 0.00 89 1014.4
20260906101625 69 270 1.0 2.0 0.00 0.00 0.00 89 1014.4
20260906101127 69 270 1.0 2.0 0.00 0.00 0.00 89 1014.4
20260906100624 69 270 1.0 1.0 0.00 0.00 0.00 89 1014.3
20260906100121 69 270 1.0 1.0 0.00 0.00 0.00 89 1014.3
20260906095642 69 270 1.0 2.0 0.00 0.00 0.00 89 1014.4
20260906095119 69 270 1.0 2.0 0.00 0.00 0.00 89 1014.4
20260906094621 69 270 1.0 2.0 0.00 0.00 0.00 89 1014.1
20260906094117 69 270 1.0 2.0 0.00 0.00 0.00 89 1014.1
20260906093618 69 270 1.0 2.0 0.00 0.00 0.00 89 1014.3
20260906093115 69 270 1.0 2.0 0.00 0.00 0.00 89 1014.3
20260906092615 68 270 1.0 2.0 0.00 0.00 0.00 89 1014.2
20260906092114 68 270 1.0 2.0 0.00 0.00 0.00 89 1014.2
20260906091613 68 270 1.0 3.0 0.00 0.00 0.00 88 1014.0
20260906091112 68 270 1.0 3.0 0.00 0.00 0.00 88 1014.0
20260906090632 68 270 1.0 1.0 0.00 0.00 0.00 88 1013.8
20260906090110 68 270 1.0 1.0 0.00 0.00 0.00 88 1013.8
20260906085610 68 270 1.0 3.0 0.00 0.00 0.00 88 1013.8
20260906085110 68 270 1.0 3.0 0.00 0.00 0.00 88 1013.8
20260906084607 67 270 1.0 2.0 0.00 0.00 0.00 88 1013.6
20260906084106 67 270 1.0 2.0 0.00 0.00 0.00 88 1013.6
20260906083606 67 270 1.0 2.0 0.00 0.00 0.00 88 1013.6
20260906083105 67 270 1.0 2.0 0.00 0.00 0.00 88 1013.6
20260906082603 67 270 1.0 3.0 0.00 0.00 0.00 88 1013.5
20260906082103 67 270 1.0 3.0 0.00 0.00 0.00 88 1013.5
20260906081602 67 270 1.0 3.0 0.00 0.00 0.00 87 1013.6
20260906081114 67 270 1.0 3.0 0.00 0.00 0.00 87 1013.6
20260906080559 67 270 1.0 2.0 0.00 0.00 0.00 87 1013.5
20260906080058 67 270 1.0 2.0 0.00 0.00 0.00 87 1013.5
20260906075558 67 270 1.0 3.0 0.00 0.00 0.00 87 1013.5
20260906075056 67 270 1.0 3.0 0.00 0.00 0.00 87 1013.5
20260906074616 68 270 1.0 2.0 0.00 0.00 0.00 87 1013.3
20260906074115 68 270 1.0 2.0 0.00 0.00 0.00 87 1013.3
20260906073613 68 270 1.0 2.0 0.00 0.00 0.00 87 1013.3
20260906073053 68 270 1.0 2.0 0.00 0.00 0.00 87 1013.3
20260906072551 68 270 1.0 2.0 0.00 0.00 0.00 87 1013.5
20260906072052 68 270 1.0 2.0 0.00 0.00 0.00 87 1013.5
20260906071630 68 270 1.0 2.0 0.00 0.00 0.00 87 1013.6
20260906071110 68 270 1.0 2.0 0.00 0.00 0.00 87 1013.6
20260906070547 68 270 1.0 3.0 0.00 0.00 0.00 87 1013.7
20260906070107 68 270 1.0 3.0 0.00 0.00 0.00 87 1013.7
20260906065544 68 270 1.0 2.0 0.00 0.00 0.00 87 1013.7
20260906065105 68 270 1.0 2.0 0.00 0.00 0.00 87 1013.7
20260906064604 68 270 1.0 2.0 0.00 0.00 0.00 87 1013.8
20260906064042 68 270 1.0 2.0 0.00 0.00 0.00 87 1013.8
20260906063544 68 255 1.0 2.0 0.00 0.00 0.00 87 1013.9
20260906063041 68 255 1.0 2.0 0.00 0.00 0.00 87 1013.9
20260906062602 68 270 1.0 1.0 0.00 0.00 0.00 86 1013.9
20260906062038 68 270 1.0 1.0 0.00 0.00 0.00 86 1013.9
20260906061537 68 251 1.0 3.0 0.00 0.00 0.00 86 1013.9
20260906061046 68 251 1.0 3.0 0.00 0.00 0.00 86 1013.9
20260906060537 69 270 1.0 2.0 0.00 0.00 0.00 86 1013.9
20260906060034 69 270 1.0 2.0 0.00 0.00 0.00 86 1013.9
20260906055533 69 270 1.0 2.0 0.00 0.00 0.00 86 1014.0
20260906055033 69 270 1.0 2.0 0.00 0.00 0.00 86 1014.0
20260906054532 69 270 1.0 2.0 0.00 0.00 0.00 85 1014.1
20260906054032 69 270 1.0 2.0 0.00 0.00 0.00 85 1014.1
20260906053529 69 270 1.0 2.0 0.00 0.00 0.00 85 1014.1
20260906053027 69 270 1.0 2.0 0.00 0.00 0.00 85 1014.1
20260906052528 69 270 1.0 2.0 0.00 0.00 0.00 85 1013.9
20260906052026 69 270 1.0 2.0 0.00 0.00 0.00 85 1013.9
20260906051525 69 255 1.0 2.0 0.00 0.00 0.00 84 1014.0
20260906051045 69 255 1.0 2.0 0.00 0.00 0.00 84 1014.0
20260906050534 70 254 1.0 2.0 0.00 0.00 0.00 84 1013.9
20260906050036 70 254 1.0 2.0 0.00 0.00 0.00 84 1013.9
20260906045523 70 270 1.0 3.0 0.00 0.00 0.00 83 1014.0
20260906045020 70 270 1.0 3.0 0.00 0.00 0.00 83 1014.0
20260906044540 70 270 1.0 2.0 0.00 0.00 0.00 83 1013.8
20260906044019 70 270 1.0 2.0 0.00 0.00 0.00 83 1013.8
20260906043518 70 270 1.0 3.0 0.00 0.00 0.00 82 1013.9
20260906043026 70 270 1.0 3.0 0.00 0.00 0.00 82 1013.9
20260906042536 71 270 1.0 2.0 0.00 0.00 0.00 81 1014.1
20260906042015 71 270 1.0 2.0 0.00 0.00 0.00 81 1014.1
20260906041514 71 254 1.0 2.0 0.00 0.00 0.00 81 1014.0
20260906041012 71 254 1.0 2.0 0.00 0.00 0.00 81 1014.0
20260906040531 72 288 1.0 2.0 0.00 0.00 0.00 80 1013.9
20260906040045 72 288 1.0 2.0 0.00 0.00 0.00 80 1013.9
20260906035509 72 270 1.0 3.0 0.00 0.00 0.00 79 1014.2
20260906035039 72 270 1.0 3.0 0.00 0.00 0.00 79 1014.2
20260906034519 73 270 1.0 3.0 0.00 0.00 0.00 79 1014.2
20260906034018 73 270 1.0 3.0 0.00 0.00 0.00 79 1014.2
20260906033515 73 243 1.0 3.0 0.00 0.00 0.00 78 1014.3
20260906033025 73 243 1.0 3.0 0.00 0.00 0.00 78 1014.3
20260906032514 73 270 1.0 2.0 0.00 0.00 0.00 78 1014.3
20260906032051 73 270 1.0 2.0 0.00 0.00 0.00 78 1014.3
20260906031501 73 270 1.0 2.0 0.00 0.00 0.00 77 1014.2
20260906031000 73 270 1.0 2.0 0.00 0.00 0.00 77 1014.2
20260906030500 73 270 1.0 2.0 0.00 0.00 0.00 77 1014.1
20260906025958 73 270 1.0 2.0 0.00 0.00 0.00 77 1014.1
20260906025457 74 270 1.0 3.0 0.00 0.00 0.00 76 1014.0
20260906025017 74 270 1.0 3.0 0.00 0.00 0.00 76 1014.0
20260906024456 74 270 1.0 2.0 0.00 0.00 0.00 76 1014.0
20260906024015 74 270 1.0 2.0 0.00 0.00 0.00 76 1014.0
20260906023513 74 270 1.0 2.0 0.00 0.00 0.00 75 1014.0
20260906022953 74 270 1.0 2.0 0.00 0.00 0.00 75 1014.0
20260906022452 75 270 1.0 2.0 0.00 0.00 0.00 74 1013.8
20260906021952 75 270 1.0 2.0 0.00 0.00 0.00 74 1013.8
20260906021448 75 270 1.0 2.0 0.00 0.00 0.00 73 1013.8
20260906020949 75 270 1.0 2.0 0.00 0.00 0.00 73 1013.8
20260906020447 76 270 1.0 3.0 0.00 0.00 0.00 72 1013.7
20260906015945 76 270 1.0 3.0 0.00 0.00 0.00 72 1013.7
20260906015446 76 270 1.0 2.0 0.00 0.00 0.00 72 1013.5
20260906014945 76 270 1.0 2.0 0.00 0.00 0.00 72 1013.5
20260906014443 77 270 1.0 3.0 0.00 0.00 0.00 71 1013.3
20260906013942 77 270 1.0 3.0 0.00 0.00 0.00 71 1013.3
20260906013442 77 210 1.0 2.0 0.00 0.00 0.00 69 1013.3
20260906012941 77 210 1.0 2.0 0.00 0.00 0.00 69 1013.3
20260906012439 78 220 1.0 2.0 0.00 0.00 0.00 68 1013.1
20260906011939 78 220 1.0 2.0 0.00 0.00 0.00 68 1013.1
20260906011437 79 222 1.0 3.0 0.00 0.00 0.00 67 1013.1
20260906010936 79 222 1.0 3.0 0.00 0.00 0.00 67 1013.1
20260906010438 79 225 1.0 2.0 0.00 0.00 0.00 66 1013.2
20260906005934 79 225 1.0 2.0 0.00 0.00 0.00 66 1013.2
20260906005433 80 225 1.0 3.0 0.00 0.00 0.00 64 1013.0
20260906004934 80 225 1.0 3.0 0.00 0.00 0.00 64 1013.0
20260906004431 81 235 1.0 3.0 0.00 0.00 0.00 63 1012.9
20260906003931 81 235 1.0 3.0 0.00 0.00 0.00 63 1012.9
20260906003451 82 270 1.0 2.0 0.00 0.00 0.00 61 1012.9
20260906002928 82 270 1.0 2.0 0.00 0.00 0.00 61 1012.9
20260906002428 83 270 1.0 2.0 0.00 0.00 0.00 61 1012.7
20260906001926 83 270 1.0 2.0 0.00 0.00 0.00 61 1012.7
20260906001427 83 270 1.0 1.0 0.00 0.00 0.00 60 1012.5
20260906000925 83 270 1.0 1.0 0.00 0.00 0.00 60 1012.5
20260906000425 84 270 1.0 2.0 0.00 0.00 0.00 60 1012.4
20260906000004 84 270 1.0 2.0 0.00 0.00 0.00 60 1012.4
20260905235421 84 270 1.0 2.0 0.00 0.00 0.00 60 1012.4
20260905234920 84 270 1.0 2.0 0.00 0.00 0.00 60 1012.4
20260905234421 84 270 1.0 2.0 0.00 0.00 0.00 59 1012.4
20260905234000 84 270 1.0 2.0 0.00 0.00 0.00 59 1012.4
20260905233417 85 270 1.0 1.0 0.00 0.00 0.00 59 1012.4
20260905232916 85 270 1.0 1.0 0.00 0.00 0.00 59 1012.4
20260905232416 85 270 1.0 2.0 0.00 0.00 0.00 58 1012.4
20260905231914 85 270 1.0 2.0 0.00 0.00 0.00 58 1012.4
20260905231433 85 270 1.0 2.0 0.00 0.00 0.00 58 1012.4
20260905230925 86 270 1.0 2.0 0.00 0.00 0.00 57 1012.4
20260905230412 86 270 1.0 3.0 0.00 0.00 0.00 57 1012.5
20260905225932 86 270 1.0 3.0 0.00 0.00 0.00 57 1012.5
20260905225411 87 270 1.0 2.0 0.00 0.00 0.00 57 1012.4
20260905224909 87 270 1.0 2.0 0.00 0.00 0.00 57 1012.4
20260905224407 87 270 1.0 3.0 0.00 0.00 0.00 57 1012.3
20260905223927 87 270 1.0 3.0 0.00 0.00 0.00 57 1012.3
20260905223426 88 270 1.0 2.0 0.00 0.00 0.00 57 1012.3
20260905222905 88 270 1.0 2.0 0.00 0.00 0.00 57 1012.3
20260905222405 88 270 1.0 3.0 0.00 0.00 0.00 55 1012.3
20260905221903 88 270 1.0 3.0 0.00 0.00 0.00 55 1012.3
20260905221401 88 270 1.0 2.0 0.00 0.00 0.00 55 1012.2
20260905220901 88 270 1.0 2.0 0.00 0.00 0.00 55 1012.2
20260905220400 88 270 1.0 2.0 0.00 0.00 0.00 55 1012.2
20260905215858 88 270 1.0 2.0 0.00 0.00 0.00 54 1012.2
20260905215357 88 270 1.0 2.0 0.00 0.00 0.00 54 1012.2
20260905214857 89 296 1.0 3.0 0.00 0.00 0.00 54 1012.1
20260905214356 89 296 1.0 3.0 0.00 0.00 0.00 54 1012.1
20260905213856 89 288 1.0 2.0 0.00 0.00 0.00 54 1012.0
20260905213353 89 288 1.0 2.0 0.00 0.00 0.00 54 1012.0
20260905212853 90 270 1.0 4.0 0.00 0.00 0.00 52 1011.9
20260905212351 90 270 1.0 4.0 0.00 0.00 0.00 52 1011.9
20260905211850 91 270 1.0 3.0 0.00 0.00 0.00 53 1011.9
20260905211349 91 270 1.0 3.0 0.00 0.00 0.00 53 1011.9
20260905210850 91 270 1.0 3.0 0.00 0.00 0.00 53 1011.9
20260905210347 91 270 1.0 3.0 0.00 0.00 0.00 53 1011.9
20260905205845 91 270 1.0 2.0 0.00 0.00 0.00 51 1011.9
20260905205357 91 270 1.0 2.0 0.00 0.00 0.00 51 1011.9
20260905204844 93 270 1.0 3.0 0.00 0.00 0.00 50 1011.9
20260905204343 93 270 1.0 3.0 0.00 0.00 0.00 50 1011.9
20260905203843 93 270 1.0 4.0 0.00 0.00 0.00 50 1011.9
20260905203344 93 270 1.0 4.0 0.00 0.00 0.00 50 1011.9
20260905202841 93 270 1.0 5.0 0.00 0.00 0.00 48 1011.9
20260905202339 93 270 1.0 5.0 0.00 0.00 0.00 48 1011.9
20260905201839 94 270 1.0 4.0 0.00 0.00 0.00 48 1011.7
20260905201338 94 270 1.0 4.0 0.00 0.00 0.00 48 1011.7
20260905200849 94 270 1.0 4.0 0.00 0.00 0.00 49 1011.7
20260905200335 94 270 1.0 4.0 0.00 0.00 0.00 49 1011.7
20260905195854 94 249 2.0 3.0 0.00 0.00 0.00 50 1011.6
20260905195336 94 249 2.0 3.0 0.00 0.00 0.00 50 1011.6
20260905190910 93 270 1.0 2.0 0.00 0.00 0.00 58 1012.5
20260905190323 93 270 1.0 2.0 0.00 0.00 0.00 58 1012.5
20260905185822 91 232 1.0 3.0 0.00 0.00 0.00 61 1012.8
20260905185322 91 232 1.0 3.0 0.00 0.00 0.00 61 1012.8
20260905184819 88 270 1.0 5.0 0.00 0.00 0.00 61 1013.1
20260905184320 88 270 1.0 5.0 0.00 0.00 0.00 61 1013.1
20260905183818 87 270 1.0 3.0 0.00 0.00 0.00 63 1013.3
20260905183317 87 270 1.0 3.0 0.00 0.00 0.00 63 1013.3
20260905182838 86 311 1.0 4.0 0.00 0.00 0.00 62 1013.5
20260905182336 86 311 1.0 4.0 0.00 0.00 0.00 62 1013.5
20260905181817 87 319 1.0 6.0 0.00 0.00 0.00 62 1013.3
20260905181313 87 319 1.0 6.0 0.00 0.00 0.00 62 1013.3
20260905180835 86 270 1.0 2.0 0.00 0.00 0.00 62 1013.3
20260905180311 86 270 1.0 2.0 0.00 0.00 0.00 62 1013.3
20260905175831 87 270 1.0 2.0 0.00 0.00 0.00 61 1013.3
20260905175310 87 270 1.0 2.0 0.00 0.00 0.00 61 1013.3
20260905174828 87 135 1.0 3.0 0.00 0.00 0.00 62 1013.5
20260905174307 87 135 1.0 3.0 0.00 0.00 0.00 62 1013.5
20260905173810 87 207 1.0 3.0 0.00 0.00 0.00 63 1013.3
20260905173305 87 207 1.0 3.0 0.00 0.00 0.00 63 1013.3
20260905172804 87 204 1.0 3.0 0.00 0.00 0.00 62 1013.7
20260905172305 87 204 1.0 3.0 0.00 0.00 0.00 62 1013.7
20260905171802 87 229 1.0 2.0 0.00 0.00 0.00 63 1013.8
20260905171301 87 229 1.0 2.0 0.00 0.00 0.00 63 1013.8
20260905170802 87 270 1.0 2.0 0.00 0.00 0.00 63 1013.9
20260905170258 87 270 1.0 2.0 0.00 0.00 0.00 63 1013.9
20260905165759 87 315 1.0 4.0 0.00 0.00 0.00 64 1014.1
20260905165300 87 315 1.0 4.0 0.00 0.00 0.00 64 1014.1
20260905164758 87 240 1.0 4.0 0.00 0.00 0.00 65 1014.2
20260905164255 87 240 1.0 4.0 0.00 0.00 0.00 65 1014.2
20260905163755 86 270 1.0 2.0 0.00 0.00 0.00 65 1014.3
20260905163313 86 270 1.0 2.0 0.00 0.00 0.00 65 1014.3
20260905162753 86 270 1.0 2.0 0.00 0.00 0.00 66 1014.5
20260905162251 86 270 1.0 2.0 0.00 0.00 0.00 66 1014.5
20260905161751 86 302 1.0 3.0 0.00 0.00 0.00 67 1014.7
20260905161248 86 302 1.0 3.0 0.00 0.00 0.00 67 1014.7
20260905160749 86 270 1.0 3.0 0.00 0.00 0.00 69 1015.0
20260905160247 86 270 1.0 3.0 0.00 0.00 0.00 69 1015.0
20260905155746 84 323 1.0 4.0 0.00 0.00 0.00 69 1014.9
20260905155246 84 323 1.0 4.0 0.00 0.00 0.00 69 1014.9
20260905154745 84 310 1.0 4.0 0.00 0.00 0.00 70 1015.1
20260905154243 84 310 1.0 4.0 0.00 0.00 0.00 70 1015.1
20260905153741 84 270 1.0 2.0 0.00 0.00 0.00 70 1015.2
20260905153242 84 270 1.0 2.0 0.00 0.00 0.00 70 1015.2
20260905152800 85 320 1.0 7.0 0.00 0.00 0.00 69 1015.2
20260905152240 85 320 1.0 7.0 0.00 0.00 0.00 69 1015.2
20260905151738 86 270 1.0 1.0 0.00 0.00 0.00 70 1014.8
20260905151238 86 270 1.0 1.0 0.00 0.00 0.00 70 1014.8
20260905150737 86 270 1.0 2.0 0.00 0.00 0.00 70 1014.6
20260905150235 86 270 1.0 2.0 0.00 0.00 0.00 70 1014.6
20260905145736 86 270 1.0 2.0 0.00 0.00 0.00 71 1014.4
20260905144731 86 270 1.0 1.0 0.00 0.00 0.00 72 1014.5
20260905144232 86 270 1.0 1.0 0.00 0.00 0.00 72 1014.5
20260905143753 86 310 1.0 3.0 0.00 0.00 0.00 74 1014.6
20260905143229 86 310 1.0 3.0 0.00 0.00 0.00 74 1014.6
20260905142728 85 306 1.0 3.0 0.00 0.00 0.00 76 1014.4
20260905142228 85 306 1.0 3.0 0.00 0.00 0.00 76 1014.4
20260905141726 85 270 1.0 2.0 0.00 0.00 0.00 78 1014.3
20260905141227 85 270 1.0 2.0 0.00 0.00 0.00 78 1014.3
20260905140724 84 302 1.0 3.0 0.00 0.00 0.00 79 1014.4
20260905140243 84 302 1.0 3.0 0.00 0.00 0.00 79 1014.4
20260905135722 83 270 1.0 1.0 0.00 0.00 0.00 81 1014.4
20260905135222 83 270 1.0 1.0 0.00 0.00 0.00 81 1014.4
20260905134720 83 270 1.0 1.0 0.00 0.00 0.00 83 1014.2
20260905134219 83 270 1.0 1.0 0.00 0.00 0.00 83 1014.2
20260905133720 82 270 1.0 1.0 0.00 0.00 0.00 85 1014.1
20260905133217 82 270 1.0 1.0 0.00 0.00 0.00 85 1014.1
20260905132739 81 270 1.0 1.0 0.00 0.00 0.00 86 1014.1
20260905132214 81 270 1.0 1.0 0.00 0.00 0.00 86 1014.1
20260905131714 79 270 1.0 2.0 0.00 0.00 0.00 88 1014.1
20260905131213 79 270 1.0 2.0 0.00 0.00 0.00 88 1014.1
20260905130711 77 270 1.0 2.0 0.00 0.00 0.00 88 1014.1
20260905130212 77 270 1.0 2.0 0.00 0.00 0.00 88 1014.1
20260905125711 75 306 1.0 1.0 0.00 0.00 0.00 89 1014.1
20260905125209 75 306 1.0 1.0 0.00 0.00 0.00 89 1014.1
20260905124708 73 359 1.0 2.0 0.00 0.00 0.00 89 1014.2
20260905124210 73 359 1.0 2.0 0.00 0.00 0.00 89 1014.2
20260905123706 72 45 1.0 3.0 0.00 0.00 0.00 89 1014.3
20260905123206 72 45 1.0 3.0 0.00 0.00 0.00 89 1014.3
20260905122705 71 45 1.0 1.0 0.00 0.00 0.00 89 1014.2
20260905122204 71 45 1.0 1.0 0.00 0.00 0.00 89 1014.2
20260905121703 70 28 1.0 2.0 0.00 0.00 0.00 89 1014.2
20260905121200 70 28 1.0 2.0 0.00 0.00 0.00 89 1014.2
20260905120700 69 18 1.0 2.0 0.00 0.00 0.00 89 1014.2
20260905120200 69 18 1.0 2.0 0.00 0.00 0.00 89 1014.2
20260905115700 68 90 1.0 2.0 0.00 0.00 0.00 89 1014.0